This is the latest recevied weather packets stored in our database for station/object KC3IEI-9. If no packets are shown the sender has not sent any weather packets the latest 10 day(s).
| Time | Temp. | Humidity | Pressure | Rain* | Wind** | Luminosity | Snow |
|---|---|---|---|---|---|---|---|
| 1788050599 | 86° F | 44% | 766.7 mmHg | 0 in | - | - | - |
| 1788048799 | 86° F | 41% | 766 mmHg | 0 in | - | - | - |
| 1787941583 | 85° F | 35% | 766 mmHg | 0 in | - | - | - |
| 1787936182 | 84° F | 36% | 771.1 mmHg | 0 in | - | - | - |
| 1787933287 | 88° F | 40% | 770.2 mmHg | 0 in | - | - | - |
| 1787932044 | 87° F | 52% | 771.1 mmHg | 0 in | - | - | - |
| 1787930244 | 86° F | 51% | 771.8 mmHg | 0 in | - | - | - |
| 1787926794 | 82° F | 54% | 772.9 mmHg | 0 in | - | - | - |
| 1787924994 | 82° F | 54% | 772.7 mmHg | 0 in | - | - | - |
| 1787923193 | 81° F | 54% | 772.9 mmHg | 0 in | - | - | - |
| 1787921393 | 80° F | 53% | 773 mmHg | 0 in | - | - | - |
| 1787919592 | 79° F | 53% | 772.9 mmHg | 0 in | - | - | - |
| 1787917912 | 79° F | 53% | 772.9 mmHg | 0 in | - | - | - |
| 1787917791 | 79° F | 53% | 772.9 mmHg | 0 in | - | - | - |
| 1787915991 | 78° F | 53% | 772.8 mmHg | 0 in | - | - | - |
| 1787914191 | 79° F | 53% | 772.3 mmHg | 0 in | - | - | - |
| 1787912391 | 79° F | 53% | 772.2 mmHg | 0 in | - | - | - |
| 1787908792 | 79° F | 53% | 772.2 mmHg | 0 in | - | - | - |
| 1787906990 | 80° F | 52% | 772 mmHg | 0 in | - | - | - |
| 1787903433 | 80° F | 52% | 772 mmHg | 0 in | - | - | - |
| 1787903389 | 80° F | 52% | 772 mmHg | 0 in | - | - | - |
| 1787901589 | 80° F | 51% | 772 mmHg | 0 in | - | - | - |
| 1787899788 | 80° F | 51% | 772 mmHg | 0 in | - | - | - |
| 1787897988 | 80° F | 51% | 772.2 mmHg | 0 in | - | - | - |
| 1787896187 | 80° F | 51% | 772.4 mmHg | 0 in | - | - | - |
* Rain since midnight (hover to see other rain measurements)
** Current wind speed in m/s (hover to see current wind gust speed)